Home > Weather > Creston > Past weeks

Flag for Canada Past Weather in Creston, British Columbia, Canada — Yesterday and Last 2 Weeks

Now
54 °F

Cool.


Feels Like: 51 °F
Forecast: N/A
Wind: 9 mph from South

Location: Creston

Current Time: May 27, 2016 at 3:07:31 PM

Latest Report: May 27, 2016 at 2:00 PM


Visibility: N/A

Pressure: 29.98 "Hg (27.84 "Hg at 617m altitude)

Humidity: 57%

Dew Point: 39 °F

Location of CrestonLocation

Past Weather in Creston — Graph

°F

Creston Temperature Yesterday

Maximum temperature yesterday: 68 °F (at 2:00 PM)
Minimum temperature yesterday: 52 °F (at 10:00 PM)
Average temperature yesterday: 58 °F

High & Low Weather Summary for the Past Weeks

 TemperatureHumidityPressure
High77 °F (May 17, 5:00 PM)97% (May 23, 6:00 AM)30.39 "Hg (May 23, 6:00 AM)
Low42 °F (May 20, 6:00 AM)20% (May 14, 5:00 PM)29.61 "Hg (May 22, 7:00 AM)
Average57 °F63%29.93 "Hg
* Reported May 12 2:00 PM — May 27 2:00 PM, Creston, Weather by CustomWeather, © 2016

Note: Actual official high and low records may vary slightly from our data, if they occured in-between our weather recording intervals... More about our weather records

Advertising

Creston Weather History for the Previous 24 Hours

Scroll right to see more
 ConditionsComfort  
Time TempWeatherWind HumidityBarometerVisibility
2:00 PM
Fri, May 27
54 °FCool.9 mph57%29.98 "HgN/A
1:00 PM56 °FCool.9 mph60%29.95 "HgN/A
12:00 PM56 °FCool.6 mph67%29.96 "HgN/A
11:00 AM54 °FCool.8 mph63%29.97 "HgN/A
10:00 AM49 °FCool.8 mph81%29.97 "HgN/A
9:00 AM51 °FCool.9 mph77%29.96 "HgN/A
8:00 AM50 °FCool.9 mph73%29.95 "HgN/A
7:00 AM49 °FCool.7 mph82%29.93 "HgN/A
6:00 AM50 °FCool.5 mph82%29.90 "HgN/A
5:00 AM50 °FCool.6 mph96%29.88 "HgN/A
4:00 AM50 °FCool.2 mph97%29.86 "HgN/A
3:00 AM51 °FCool.2 mph96%29.87 "HgN/A
2:00 AM51 °FCool.1 mph96%29.87 "HgN/A
1:00 AM51 °FCool.No wind96%29.89 "HgN/A
12:00 AM52 °FCool.1 mph94%29.90 "HgN/A
11:00 PM
Thu, May 26
52 °FCool.2 mph94%29.92 "HgN/A
10:00 PM52 °FCool.3 mph94%29.93 "HgN/A
9:00 PM53 °FCool.6 mph91%29.94 "HgN/A
8:00 PM56 °FCool.8 mph69%29.92 "HgN/A
7:00 PM60 °FRefreshingly cool.8 mph58%29.89 "HgN/A
6:00 PM64 °FMild.9 mph53%29.88 "HgN/A
5:00 PM66 °FMild.10 mph51%29.88 "HgN/A
4:00 PM67 °FMild.12 mph51%29.90 "HgN/A
3:00 PM67 °FMild.10 mph44%29.92 "HgN/A
Weather by CustomWeather, © 2016

See weather overviewHow to use our weather pages